Location: Beuxes
(47.0936°N, 0.1818°E)
Time: 23:41:52
(UTC+00:00)

Daily predictions for brighter satellites

Satellite Brightness Start Highest point End
(mag) Time Altitude Azimuth Time Altitude Azimuth Time Altitude Azimuth
MINOTAUR 4 R/B 3.9 17:56:35 10° NNE 18:00:03 65° ESE 18:03:30 10° S
Cosmos 1766 4.2 17:57:48 10° SSE 18:01:08 27° E 18:04:28 10° NNE
Cosmos 540 Rocket 3.9 17:56:21 10° NNW 18:01:26 70° WSW 18:06:31 10° SSE
Meteor 2-10 4.3 17:57:07 10° S 18:02:33 51° E 18:07:50 10° NNE
Cosmos 1674 Rocket 3.9 17:58:48 10° N 18:03:03 44° ENE 18:07:18 10° SSE
ARGOS 4.2 17:58:01 10° S 18:03:14 53° W 18:08:30 10° NNW
YAOGAN 1 3.2 18:02:35 10° SE 18:06:30 35° ENE 18:10:25 10° N
Cosmos 968 Rocket 4.4 18:03:16 10° SSE 18:07:32 26° E 18:11:48 10° NE
Okean O Rocket 2.3 18:06:30 10° SE 18:10:22 32° ENE 18:14:17 10° N
Cosmos 2084 4.3 18:07:50 10° WSW 18:11:30 43° NW 18:15:10 10° NNE
Lacrosse 4 Rocket 3.2 18:10:52 10° SE 18:12:16 11° ESE 18:13:39 10° E
SKYMED 2 3.5 18:10:03 10° NNE 18:14:25 81° E 18:18:46 10° SSW
Nadezhda 4 Rocket 4.3 18:09:05 10° SSE 18:15:01 45° E 18:20:57 10° NNE
Meteor 2-5 Rocket 4.5 18:10:20 10° N 18:15:10 30° ENE 18:19:59 10° SE
Cosmos 2285 Rocket 4.1 18:15:18 10° NNW 18:21:34 57° ENE 18:27:50 10° SE
PSLV R/B 3.6 18:18:53 10° SSE 18:22:34 86° ENE 18:26:15 10° NNW
Cosmos 1726 2.0 18:19:35 10° S 18:23:10 61° E 18:26:47 10° NNE
Cosmos 2322 Rocket 3.2 18:18:58 10° SSE 18:23:20 23° E 18:27:42 10° NE
USA 186 3.8 18:22:41 13° E 18:23:33 14° ENE 18:25:17 10° NNE
Cosmos 1470 3.9 18:24:58 10° SE 18:27:59 22° E 18:30:59 10° NE
Cosmos 841 Rocket 4.0 18:23:07 10° NNW 18:28:15 64° WSW 18:33:19 10° S
CZ-4B R/B 3.2 18:23:28 10° SSE 18:28:48 70° ENE 18:34:18 10° N
Cosmos 1980 Rocket 2.6 18:23:27 10° SW 18:29:03 69° WNW 18:34:42 10° NNE
Cosmos 1378 Rocket 3.5 18:25:16 10° N 18:29:40 82° E 18:34:00 10° S
Cosmos 1975 Rocket 4.3 18:27:09 10° NNE 18:30:39 22° ENE 18:33:08 14° ESE
Timation 2 Rocket 4.2 18:24:51 10° NNW 18:31:19 77° WSW 18:37:26 10° SSE
ARGOS Delta rocket 4.0 18:26:28 10° NNE 18:31:43 67° E 18:36:39 10° S
DMSP B5D2-2 4.4 18:27:11 10° N 18:32:29 74° WNW 18:37:43 10° SSW
Cosmos 2292 Rocket 4.0 18:33:13 10° SSE 18:38:00 40° E 18:41:46 10° NNE
Meteor 2-14 Rocket 4.4 18:33:46 10° S 18:39:50 85° E 18:45:56 10° N
Cosmos 1733 Rocket 4.0 18:37:49 10° SSW 18:42:09 52° WNW 18:46:32 10° N
USA 215 3.6 18:38:29 10° NE 18:44:59 69° NNW 18:51:27 10° WSW
COBE Rocket 3.9 18:42:09 10° S 18:47:01 82° WSW 18:51:46 10° NNW
Cosmos 1844 Rocket 3.3 18:44:21 10° NNW 18:49:40 38° NE 18:52:59 20° ESE
Cosmos 2278 3.8 18:46:46 10° SSW 18:52:28 80° WNW 18:58:11 10° NNE
SL-16 R/B 2.3 18:47:48 10° S 18:53:16 53° ESE 18:58:48 10° NE
Cosmos 1570 Rocket 3.9 18:49:54 10° NNW 18:55:11 78° ENE 19:00:25 10° SSE
Landsat 5 4.3 18:52:09 10° NNE 18:56:11 32° E 19:00:08 10° SSE
Cosmos 1092 Rocket 4.1 18:50:25 10° SSE 18:56:28 52° E 19:02:31 10° NNE
Resurs 01 Rocket 3.4 19:01:19 15° NE 19:01:19 15° NE 19:03:27 10° NNE
DMSP B5D1-3 4.4 18:56:31 10° NNE 19:01:39 76° ESE 19:06:46 10° S
COSMO-SKYMED 1 4.4 18:58:24 10° N 19:02:19 34° WNW 19:06:14 10° SW
Meteor 2-21 Rocket 4.4 18:56:29 10° S 19:02:32 88° E 19:08:38 10° N
SJ-6B 3.3 19:02:07 33° E 19:02:52 36° ENE 19:06:23 10° N
Cosmos 2278 Rocket 4.3 19:02:01 10° NNE 19:03:58 12° NNE 19:05:41 10° NE
HJ-1C 3.9 19:01:04 10° S 19:04:07 54° W 19:07:11 10° NNW
Cosmos 1437 Rocket 2.5 19:01:46 10° S 19:05:30 85° E 19:09:15 10° NNE
H-2A R/B 4.2 19:07:12 16° NE 19:07:12 16° NE 19:08:47 10° NNE
Cosmos 2263 Rocket 3.5 19:03:31 10° NW 19:08:48 40° WSW 19:14:02 10° S
Meteor 1-24 Rocket 3.5 19:05:25 10° N 19:10:44 71° ENE 19:16:07 10° SSE
Resurs 1-3 4.2 19:11:26 34° E 19:12:01 35° ENE 19:16:02 10° N
SL-4 R/B 3.0 19:11:09 10° WNW 19:15:27 47° SW 19:17:52 24° SSE
Meteor 2-16 Rocket 4.5 19:10:22 10° S 19:16:30 86° W 19:22:42 10° N
Feng Yun 1-1 Rocket 4.3 19:11:18 10° SSE 19:16:47 79° WSW 19:22:13 10° NNW
Cosmos 2084 Rocket 3.1 19:15:01 10° NW 19:18:51 81° NE 19:19:51 49° SE
USA 267 4.0 19:14:27 10° SSE 19:20:38 48° SW 19:26:58 10° WNW
Okean-O 2.7 19:20:29 41° ESE 19:21:40 54° ENE 19:25:59 10° N
ISS -0.9 19:20:43 10° WSW 19:22:19 13° SW 19:23:54 10° SSW
Cosmos 1486 Rocket 4.2 19:17:45 10° S 19:22:48 45° ESE 19:27:51 10° NNE
CZ-4 R/B 2.2 19:18:53 10° S 19:22:58 53° W 19:27:05 10° NNW
OBJECT-B 2.1 19:24:56 25° NNW 19:24:56 25° NNW 19:26:09 10° NNW
Cosmos 2208 Rocket 4.2 19:18:27 10° NNW 19:23:51 78° WSW 19:28:15 16° SSE
Cosmos 1844 3.8 19:18:49 10° NNW 19:24:19 56° ENE 19:26:12 38° ESE
IGS 5A 3.4 19:24:37 48° SE 19:25:32 63° ENE 19:29:38 10° N
DNEPR-1 R/B 3.9 19:22:13 10° SSW 19:26:46 58° ESE 19:30:36 19° NE
Meteor 1-22 Rocket 4.1 19:22:26 10° S 19:27:52 89° W 19:33:33 10° N
Cosmos 2333 Rocket4.519:36:34NE19:36:34NE19:24:21SSE
Cosmos 1300 Rocket 3.5 19:30:15 56° E 19:30:19 56° E 19:34:36 10° NNE
CSL-04 Debris 4.0 19:28:02 21° SSE 19:31:48 84° ENE 19:37:13 10° NNW
Cosmos 1428 Rocket 4.4 19:25:51 10° S 19:32:03 89° W 19:38:21 10° N
Cosmos 1627 Rocket 4.4 19:29:24 10° S 19:35:31 88° E 19:41:42 10° N
Cosmos 2360 Rocket 2.2 19:32:18 10° S 19:37:48 57° ESE 19:43:20 10° NE
Cosmos 1782 Rocket 3.8 19:34:23 10° SSW 19:38:42 69° W 19:43:05 10° N
USA 81 4.0 19:34:07 10° N 19:39:25 87° W 19:43:22 18° S
Cosmos 1025 Rocket 3.1 19:39:08 10° NNW 19:43:27 75° W 19:44:51 42° S
Okean O Rocket 3.6 19:42:56 10° SSW 19:46:43 28° W 19:50:31 10° NW
Cosmos 968 Rocket 4.5 19:43:58 10° SW 19:49:02 48° WNW 19:54:07 10° NNE
Lacrosse 4 Rocket 1.4 19:46:05 10° SW 19:50:11 79° WNW 19:50:17 78° NW
Cosmos 1417 Rocket 4.5 19:44:21 10° N 19:50:22 55° ENE 19:51:03 53° ESE
Cosmos 2026 Rocket 4.1 19:46:04 10° SSW 19:52:07 72° W 19:58:11 10° N
USA 186 3.1 19:55:51 40° WNW 19:55:51 40° WNW 19:58:42 10° NNW
CSL-04 Rocket 3.9 19:55:05 30° S 19:57:46 68° WSW 20:03:11 10° NNW
ATLAS 2AS CENTAUR R/B 4.3 19:53:06 10° NW 19:58:50 24° NNE 20:01:35 19° NE
MOS 1 4.3 20:01:33 57° ENE 20:01:33 57° ENE 20:06:59 10° N
Cosmos 1553 Rocket 3.9 19:57:50 10° N 20:04:14 89° WSW 20:06:33 43° S
Landsat 7 3.8 20:04:06 78° SW 20:04:15 79° WSW 20:09:00 10° NNW
deb Chang Zheng 4 4.5 20:05:56 40° N 20:05:56 40° N 20:08:39 10° NNW
Cosmos 2322 Rocket 2.6 20:01:15 10° SW 20:06:54 62° WNW 20:12:35 10° NNE
SPOT 1/Viking Rocket 3.9 20:07:53 52° NNE 20:07:53 52° NNE 20:12:05 10° N
Cosmos 1975 Rocket 4.3 20:04:32 10° NNW 20:08:38 39° W 20:10:19 27° SW
NOSS 3-4 (A) 4.1 20:04:31 10° NW 20:11:06 51° NE 20:12:04 48° ENE
NOSS 3-4 (C) 4.1 20:04:37 10° NW 20:11:13 50° NE 20:12:10 48° ENE
Ariane Rocket 4.2 20:16:26 32° NNE 20:16:26 32° NNE 20:19:29 10° N
NOSS 3-3 (A) 3.7 20:14:58 10° SW 20:20:03 75° SSW 20:20:03 75° SSW
NOSS 3-3 (C) 3.8 20:15:04 10° SW 20:19:58 71° SSW 20:19:58 71° SSW
Aureole 1 Rocket 3.9 20:17:25 10° SSW 20:24:53 87° ESE 20:30:46 10° NNE
USA 281 4.2 20:27:40 32° NE 20:27:40 32° NE 20:32:48 10° N
USA 215 4.3 20:24:15 25° NE 20:27:27 40° N 20:33:25 10° WNW
Cosmos 1844 Rocket 3.7 20:28:20 10° NW 20:33:34 39° WSW 20:34:40 36° SW
Resurs 01 Rocket 3.3 20:38:53 30° NNW 20:38:53 30° NNW 20:41:14 10° NNW
SL-16 R/B 4.0 20:32:45 10° WSW 20:37:41 30° NW 20:42:39 10° NNE
Terra 4.3 20:42:43 13° NNE 20:42:43 13° NNE 20:43:22 10° N
Cosmos 1943 Rocket 4.3 20:36:57 10° N 20:38:59 15° NNE 20:38:59 15° NNE
Cosmos 2278 Rocket 3.5 20:44:13 10° NNW 20:47:32 31° N 20:47:32 31° N
Cosmos 2360 Rocket 4.0 21:17:18 10° WSW 21:22:09 28° NW 21:27:00 10° N
ATLAS 2AS CENTAUR R/B 3.9 21:44:30 10° NW 21:49:00 36° NNW 21:49:00 36° NNW
